timestamp,wind_dir_avg,wind_spd_avg,wind_spd_max_dir,wind_spd_gust,battery_voltage,lat,long
2023-08-24 00:04:00+00:00,104.0,1.91,136.0,3.08,12.57,47.59359,-54.27349
2023-08-24 00:14:01+00:00,86.0,2.21,102.0,3.85,12.49,47.59359,-54.27349
2023-08-24 00:24:01+00:00,68.0,2.93,72.0,3.51,12.49,47.59359,-54.27349
2023-08-24 00:34:01+00:00,76.0,2.93,74.0,3.85,12.49,47.59359,-54.27349
2023-08-24 00:44:01+00:00,71.0,2.11,69.0,2.91,12.49,47.59359,-54.27349
2023-08-24 00:54:01+00:00,65.0,2.13,65.0,2.77,12.49,47.59359,-54.27349
2023-08-24 01:04:01+00:00,91.0,1.67,103.0,2.74,12.49,47.59359,-54.27349
2023-08-24 01:14:00+00:00,77.0,1.65,71.0,2.32,12.41,47.59359,-54.27349
2023-08-24 01:24:00+00:00,90.0,1.46,80.0,2.04,12.41,47.59359,-54.27349
2023-08-24 01:34:00+00:00,93.0,1.41,67.0,2.57,12.41,47.59359,-54.27349
2023-08-24 01:44:00+00:00,72.0,1.65,67.0,2.07,12.41,47.59359,-54.27349
2023-08-24 01:54:00+00:00,90.0,1.35,112.0,2.0,12.41,47.59359,-54.27349
2023-08-24 02:04:00+00:00,80.0,1.64,81.0,2.0,12.41,47.59359,-54.27349
2023-08-24 02:14:00+00:00,69.0,2.42,69.0,2.87,12.41,47.59359,-54.27349
2023-08-24 02:24:00+00:00,86.0,1.79,70.0,2.4,12.41,47.59359,-54.27349
2023-08-24 02:34:00+00:00,56.0,1.05,43.0,1.67,12.41,47.59359,-54.27349
2023-08-24 02:44:00+00:00,105.0,1.51,127.0,2.02,12.41,47.59359,-54.27349
2023-08-24 02:54:00+00:00,90.0,0.48,68.0,1.07,12.41,47.59359,-54.27349
2023-08-24 03:04:00+00:00,68.0,1.47,57.0,1.83,12.41,47.59359,-54.27349
2023-08-24 03:14:01+00:00,45.0,1.69,49.0,1.99,12.41,47.59359,-54.27349
2023-08-24 03:24:01+00:00,49.0,1.89,52.0,2.07,12.41,47.59359,-54.27349
2023-08-24 03:34:01+00:00,104.0,1.36,128.0,2.19,12.41,47.59359,-54.27349
2023-08-24 03:44:01+00:00,75.0,0.89,89.0,1.81,12.41,47.59359,-54.27349
2023-08-24 03:54:01+00:00,115.0,2.16,115.0,2.85,12.41,47.59359,-54.27349
2023-08-24 04:04:01+00:00,106.0,2.02,107.0,3.46,12.41,47.59359,-54.27349
2023-08-24 04:14:00+00:00,119.0,1.85,127.0,2.57,12.41,47.59359,-54.27349
2023-08-24 04:24:00+00:00,129.0,3.55,126.0,4.05,12.41,47.59359,-54.27349
2023-08-24 04:34:00+00:00,147.0,3.42,149.0,4.07,12.41,47.59359,-54.27349
2023-08-24 04:44:00+00:00,149.0,3.56,150.0,4.06,12.41,47.59359,-54.27349
2023-08-24 04:54:00+00:00,151.0,3.4,151.0,3.78,12.41,47.59359,-54.27349
2023-08-24 05:04:00+00:00,151.0,2.84,150.0,3.24,12.41,47.59359,-54.27349
2023-08-24 05:14:00+00:00,155.0,2.15,154.0,2.68,12.41,47.59359,-54.27349
2023-08-24 05:24:00+00:00,152.0,1.03,153.0,1.37,12.41,47.59359,-54.27349
2023-08-24 05:34:00+00:00,78.0,0.36,118.0,0.96,12.41,47.59359,-54.27349
2023-08-24 05:44:00+00:00,66.0,0.44,49.0,0.73,12.41,47.59359,-54.27349
2023-08-24 05:54:00+00:00,238.0,0.62,207.0,0.92,12.41,47.59359,-54.27349
2023-08-24 06:04:00+00:00,20.0,1.07,14.0,1.29,12.41,47.59359,-54.27349
2023-08-24 06:14:00+00:00,48.0,0.6,30.0,0.93,12.33,47.59359,-54.27349
2023-08-24 06:24:00+00:00,42.0,1.35,38.0,1.76,12.33,47.59359,-54.27349
2023-08-24 06:34:00+00:00,17.0,1.04,16.0,1.35,12.33,47.59359,-54.27349
2023-08-24 06:44:00+00:00,13.0,0.99,16.0,1.4,12.33,47.59359,-54.27349
2023-08-24 06:54:00+00:00,7.0,1.55,4.0,1.91,12.33,47.59359,-54.27349
2023-08-24 07:04:00+00:00,57.0,1.17,68.0,1.67,12.33,47.59359,-54.27349
2023-08-24 07:14:01+00:00,52.0,2.95,49.0,3.34,12.33,47.59359,-54.27349
2023-08-24 07:24:01+00:00,55.0,2.51,55.0,2.83,12.33,47.59359,-54.27349
2023-08-24 07:34:01+00:00,74.0,1.72,75.0,2.28,12.33,47.59359,-54.27349
2023-08-24 07:44:01+00:00,70.0,4.67,73.0,5.54,12.33,47.59359,-54.27349
2023-08-24 07:54:01+00:00,66.0,5.27,61.0,6.01,12.33,47.59359,-54.27349
2023-08-24 08:04:01+00:00,73.0,4.59,73.0,5.63,12.33,47.59359,-54.27349
2023-08-24 08:14:00+00:00,72.0,3.14,72.0,3.99,12.33,47.59359,-54.27349
2023-08-24 08:24:00+00:00,68.0,4.03,65.0,4.82,12.33,47.59359,-54.27349
2023-08-24 08:34:00+00:00,66.0,5.42,68.0,6.01,12.33,47.59359,-54.27349
2023-08-24 08:44:00+00:00,70.0,5.31,69.0,5.78,12.33,47.59359,-54.27349
2023-08-24 08:54:00+00:00,68.0,4.87,67.0,5.68,12.33,47.59359,-54.27349
2023-08-24 09:04:00+00:00,73.0,4.11,82.0,5.35,12.33,47.59359,-54.27349
2023-08-24 09:14:01+00:00,70.0,4.41,69.0,5.49,12.25,47.59359,-54.27349
2023-08-24 09:24:01+00:00,71.0,4.22,73.0,4.85,12.25,47.59359,-54.27349
2023-08-24 09:34:01+00:00,72.0,3.43,67.0,4.06,12.25,47.59359,-54.27349
2023-08-24 09:44:01+00:00,82.0,2.98,75.0,4.39,12.25,47.59359,-54.27349
2023-08-24 09:54:01+00:00,69.0,3.32,64.0,3.92,12.25,47.59359,-54.27349
2023-08-24 10:04:01+00:00,77.0,2.43,81.0,3.27,12.25,47.59359,-54.27349
2023-08-24 10:14:00+00:00,79.0,2.53,90.0,3.48,12.25,47.59359,-54.27349
2023-08-24 10:24:00+00:00,70.0,2.96,69.0,3.55,12.25,47.59359,-54.27349
2023-08-24 10:34:00+00:00,86.0,2.38,85.0,4.04,12.25,47.59359,-54.27349
2023-08-24 10:44:00+00:00,86.0,1.86,86.0,2.89,12.25,47.59359,-54.27349
2023-08-24 10:54:00+00:00,67.0,2.71,73.0,3.55,12.25,47.59359,-54.27349
2023-08-24 11:04:00+00:00,72.0,3.26,72.0,4.33,12.25,47.59359,-54.27349
2023-08-24 11:14:01+00:00,86.0,1.29,56.0,1.91,13.05,47.59359,-54.27349
2023-08-24 11:24:01+00:00,67.0,1.94,67.0,2.35,13.05,47.59359,-54.27349
2023-08-24 11:34:01+00:00,68.0,2.44,65.0,3.05,13.05,47.59359,-54.27349
2023-08-24 11:44:01+00:00,78.0,1.75,82.0,2.93,13.05,47.59359,-54.27349
2023-08-24 11:54:01+00:00,74.0,2.22,69.0,2.67,13.05,47.59359,-54.27349
2023-08-24 12:04:01+00:00,66.0,2.82,63.0,3.73,13.05,47.59359,-54.27349
2023-08-24 12:14:00+00:00,83.0,1.68,69.0,2.32,13.53,47.59359,-54.27349
2023-08-24 12:24:00+00:00,63.0,2.73,65.0,3.1,13.53,47.59359,-54.27349
2023-08-24 12:34:00+00:00,71.0,1.9,83.0,2.72,13.53,47.59359,-54.27349
2023-08-24 12:44:00+00:00,68.0,1.62,65.0,2.11,13.53,47.59359,-54.27349
2023-08-24 12:54:00+00:00,51.0,2.12,43.0,2.81,13.53,47.59359,-54.27349
2023-08-24 13:04:00+00:00,61.0,2.48,61.0,2.89,13.53,47.59359,-54.27349
2023-08-24 13:14:01+00:00,62.0,2.24,61.0,2.78,13.44,47.59359,-54.27349
2023-08-24 13:24:01+00:00,60.0,2.38,61.0,2.78,13.44,47.59359,-54.27349
2023-08-24 13:34:01+00:00,63.0,2.95,66.0,3.57,13.44,47.59359,-54.27349
2023-08-24 13:44:01+00:00,47.0,2.38,41.0,2.78,13.44,47.59359,-54.27349
2023-08-24 13:54:01+00:00,40.0,2.71,33.0,3.32,13.44,47.59359,-54.27349
2023-08-24 14:04:01+00:00,47.0,2.37,42.0,2.74,13.44,47.59359,-54.27349
2023-08-24 14:14:00+00:00,60.0,1.91,57.0,2.42,13.68,47.59359,-54.27349
2023-08-24 14:24:00+00:00,65.0,2.2,67.0,2.64,13.68,47.59359,-54.27349
2023-08-24 14:34:00+00:00,65.0,2.65,81.0,3.33,13.68,47.59359,-54.27349
2023-08-24 14:44:00+00:00,73.0,2.18,78.0,3.6,13.68,47.59359,-54.27349
2023-08-24 14:54:00+00:00,85.0,1.83,77.0,2.47,13.68,47.59359,-54.27349
2023-08-24 15:04:00+00:00,58.0,2.07,52.0,2.4,13.68,47.59359,-54.27349
2023-08-24 15:14:00+00:00,79.0,2.38,86.0,3.07,13.6,47.59359,-54.27349
2023-08-24 15:24:00+00:00,125.0,1.94,105.0,2.68,13.6,47.59359,-54.27349
2023-08-24 15:34:00+00:00,140.0,2.33,141.0,2.59,13.6,47.59359,-54.27349
2023-08-24 15:44:00+00:00,141.0,2.25,142.0,2.5,13.6,47.59359,-54.27349
2023-08-24 15:54:00+00:00,149.0,1.33,144.0,1.75,13.6,47.59359,-54.27349
2023-08-24 16:04:00+00:00,217.0,0.52,216.0,0.77,13.6,47.59359,-54.27349
2023-08-24 16:14:00+00:00,235.0,0.76,231.0,0.9,14.32,47.59359,-54.27349
2023-08-24 16:24:00+00:00,232.0,0.83,226.0,1.13,14.32,47.59359,-54.27349
2023-08-24 16:34:00+00:00,251.0,0.52,249.0,0.97,14.32,47.59359,-54.27349
2023-08-24 16:44:00+00:00,233.0,1.25,221.0,1.7,14.32,47.59359,-54.27349
2023-08-24 16:54:00+00:00,231.0,1.9,231.0,2.19,14.32,47.59359,-54.27349
2023-08-24 17:04:00+00:00,213.0,2.72,215.0,2.95,14.32,47.59359,-54.27349
2023-08-24 17:14:01+00:00,187.0,2.36,189.0,2.63,13.76,47.59359,-54.27349
2023-08-24 17:24:01+00:00,185.0,2.81,187.0,3.14,13.76,47.59359,-54.27349
2023-08-24 17:34:01+00:00,180.0,3.67,178.0,3.96,13.76,47.59359,-54.27349
2023-08-24 17:44:01+00:00,213.0,3.6,213.0,4.27,13.76,47.59359,-54.27349
2023-08-24 17:54:01+00:00,207.0,4.36,216.0,4.89,13.76,47.59359,-54.27349
2023-08-24 18:04:01+00:00,207.0,4.72,208.0,4.96,13.76,47.59359,-54.27349
2023-08-24 18:14:00+00:00,210.0,4.87,207.0,5.27,14.08,47.59359,-54.27349
2023-08-24 18:24:00+00:00,207.0,5.91,211.0,6.27,14.08,47.59359,-54.27349
2023-08-24 18:34:00+00:00,218.0,7.33,217.0,8.17,14.08,47.59359,-54.27349
2023-08-24 18:44:00+00:00,215.0,6.69,218.0,7.66,14.08,47.59359,-54.27349
2023-08-24 18:54:00+00:00,209.0,6.72,211.0,7.2,14.08,47.59359,-54.27349
2023-08-24 19:04:00+00:00,203.0,6.42,200.0,7.22,14.08,47.59359,-54.27349
2023-08-24 19:14:00+00:00,204.0,6.55,210.0,7.2,13.76,47.59359,-54.27349
2023-08-24 19:24:00+00:00,201.0,5.89,199.0,6.41,13.76,47.59359,-54.27349
2023-08-24 19:34:00+00:00,210.0,5.85,211.0,6.34,13.76,47.59359,-54.27349
2023-08-24 19:44:00+00:00,206.0,6.43,203.0,6.95,13.76,47.59359,-54.27349
2023-08-24 19:54:00+00:00,202.0,6.12,202.0,6.67,13.76,47.59359,-54.27349
2023-08-24 20:04:00+00:00,205.0,5.92,211.0,6.45,13.76,47.59359,-54.27349
2023-08-24 20:14:00+00:00,204.0,5.84,203.0,6.52,13.6,47.59359,-54.27349
2023-08-24 20:24:00+00:00,204.0,5.62,206.0,6.01,13.6,47.59359,-54.27349
2023-08-24 20:34:00+00:00,202.0,4.99,205.0,5.55,13.6,47.59359,-54.27349
2023-08-24 20:44:00+00:00,208.0,5.76,209.0,6.42,13.6,47.59359,-54.27349
2023-08-24 20:54:00+00:00,206.0,6.07,207.0,6.68,13.6,47.59359,-54.27349
2023-08-24 21:04:00+00:00,211.0,7.09,211.0,7.55,13.6,47.59359,-54.27349
2023-08-24 21:14:00+00:00,210.0,7.3,213.0,7.76,13.29,47.59359,-54.27349
2023-08-24 21:24:00+00:00,210.0,6.85,213.0,7.72,13.29,47.59359,-54.27349
2023-08-24 21:34:00+00:00,211.0,6.86,209.0,7.53,13.29,47.59359,-54.27349
2023-08-24 21:44:00+00:00,209.0,6.52,211.0,7.25,13.29,47.59359,-54.27349
2023-08-24 21:54:00+00:00,211.0,6.55,208.0,7.24,13.29,47.59359,-54.27349
2023-08-24 22:04:00+00:00,213.0,6.31,210.0,7.06,13.29,47.59359,-54.27349
2023-08-24 22:14:01+00:00,208.0,6.31,209.0,6.95,12.97,47.59359,-54.27349
2023-08-24 22:24:01+00:00,209.0,6.16,210.0,6.68,12.97,47.59359,-54.27349
2023-08-24 22:34:01+00:00,214.0,5.61,214.0,6.31,12.97,47.59359,-54.27349
2023-08-24 22:44:01+00:00,215.0,5.07,216.0,5.82,12.97,47.59359,-54.27349
2023-08-24 22:54:01+00:00,223.0,4.39,233.0,5.37,12.97,47.59359,-54.27349
2023-08-24 23:04:01+00:00,228.0,3.73,220.0,4.27,12.97,47.59359,-54.27349
2023-08-24 23:14:00+00:00,243.0,4.79,248.0,5.23,12.49,47.59359,-54.27349
2023-08-24 23:24:00+00:00,243.0,4.64,237.0,5.17,12.49,47.59359,-54.27349
2023-08-24 23:34:00+00:00,236.0,4.45,240.0,4.78,12.49,47.59359,-54.27349
2023-08-24 23:44:00+00:00,240.0,4.4,236.0,4.74,12.49,47.59359,-54.27349
2023-08-24 23:54:00+00:00,244.0,4.77,244.0,5.17,12.49,47.59359,-54.27349
